Time,TemperatureF,DewpointF,PressureIn,WindDirection,WindDirectionDegrees,WindSpeedMPH,WindSpeedGustMPH,Humidity,HourlyPrecipIn,Conditions,Clouds,dailyrainin,SoftwareType,DateUTC
2013-04-16 00:00:00,73.6,65.2,29.71,SSE,156,5.0,6.0,75,0.00,,,0.00,Wunderground v.1.15,2013-04-16 05:00:00,
2013-04-16 00:10:00,73.4,65.0,29.71,SSE,157,5.0,8.0,75,0.00,,,0.00,Wunderground v.1.15,2013-04-16 05:10:00,
2013-04-16 00:11:00,73.3,65.0,29.71,SSE,159,4.0,10.0,75,0.00,,,0.00,weatherlink.com 1.10,2013-04-16 05:11:00,
2013-04-16 00:20:00,73.2,65.2,29.71,SSE,150,4.0,5.0,76,0.00,,,0.00,Wunderground v.1.15,2013-04-16 05:20:00,
2013-04-16 00:25:00,73.1,65.1,29.71,South,175,3.0,5.0,76,0.00,,,0.00,Wunderground v.1.15,2013-04-16 05:25:00,
2013-04-16 00:27:00,73.1,65.0,29.71,SSE,167,3.0,7.0,76,0.00,,,0.00,weatherlink.com 1.10,2013-04-16 05:27:00,
2013-04-16 00:30:00,73.0,65.0,29.71,SE,140,3.0,3.0,76,0.00,,,0.00,Wunderground v.1.15,2013-04-16 05:30:00,
2013-04-16 00:40:00,72.8,65.2,29.71,SSE,166,4.0,4.0,77,0.00,,,0.00,Wunderground v.1.15,2013-04-16 05:40:00,
2013-04-16 00:42:00,72.7,65.0,29.71,SSE,165,8.0,8.0,77,0.00,,,0.00,weatherlink.com 1.10,2013-04-16 05:42:00,
2013-04-16 00:50:00,72.6,65.0,29.71,SSE,155,4.0,4.0,77,0.00,,,0.00,Wunderground v.1.15,2013-04-16 05:50:00,
2013-04-16 00:55:00,72.5,65.2,29.71,South,175,5.0,5.0,78,0.00,,,0.00,Wunderground v.1.15,2013-04-16 05:55:00,
2013-04-16 00:57:00,72.4,65.0,29.71,South,178,4.0,9.0,78,0.00,,,0.00,weatherlink.com 1.10,2013-04-16 05:57:00,
2013-04-16 01:05:00,72.4,65.2,29.71,SSE,167,4.0,5.0,78,0.00,,,0.00,Wunderground v.1.15,2013-04-16 06:05:00,
2013-04-16 01:10:00,72.4,65.2,29.71,South,169,4.0,4.0,78,0.00,,,0.00,Wunderground v.1.15,2013-04-16 06:10:00,
2013-04-16 01:12:00,72.3,65.0,29.71,South,186,4.0,8.0,79,0.00,,,0.00,weatherlink.com 1.10,2013-04-16 06:12:00,
2013-04-16 01:20:00,72.3,65.4,29.72,SSE,167,3.0,3.0,79,0.00,,,0.00,Wunderground v.1.15,2013-04-16 06:20:00,
2013-04-16 01:27:00,72.3,65.0,29.73,SSW,202,3.0,5.0,79,0.00,,,0.00,weatherlink.com 1.10,2013-04-16 06:27:00,
2013-04-16 01:35:00,72.5,65.6,29.73,SSW,202,1.0,2.0,79,0.00,,,0.00,Wunderground v.1.15,2013-04-16 06:35:00,
2013-04-16 01:40:00,72.6,65.7,29.73,South,170,2.0,5.0,79,0.00,,,0.00,Wunderground v.1.15,2013-04-16 06:40:00,
2013-04-16 01:42:00,72.7,66.0,29.73,SSE,165,5.0,6.0,79,0.00,,,0.00,weatherlink.com 1.10,2013-04-16 06:42:00,
2013-04-16 01:50:00,72.5,65.6,29.73,South,171,4.0,7.0,79,0.00,,,0.00,Wunderground v.1.15,2013-04-16 06:50:00,
2013-04-16 01:57:00,72.4,66.0,29.73,South,181,4.0,9.0,80,0.00,,,0.00,weatherlink.com 1.10,2013-04-16 06:57:00,
2013-04-16 02:05:00,72.4,65.9,29.74,South,178,3.0,4.0,80,0.00,,,0.00,Wunderground v.1.15,2013-04-16 07:05:00,
2013-04-16 02:13:00,72.5,66.0,29.73,South,177,1.0,5.0,80,0.00,,,0.00,weatherlink.com 1.10,2013-04-16 07:13:00,
2013-04-16 02:20:00,72.6,66.1,29.74,South,191,2.0,3.0,80,0.00,,,0.00,Wunderground v.1.15,2013-04-16 07:20:00,
2013-04-16 02:28:00,72.7,66.0,29.73,SSE,164,4.0,8.0,80,0.00,,,0.00,weatherlink.com 1.10,2013-04-16 07:28:00,
2013-04-16 02:35:00,72.6,66.1,29.73,SE,145,5.0,5.0,80,0.00,,,0.00,Wunderground v.1.15,2013-04-16 07:35:00,
2013-04-16 02:44:00,72.5,66.0,29.73,South,182,4.0,11.0,80,0.00,,,0.00,weatherlink.com 1.10,2013-04-16 07:44:00,
2013-04-16 02:50:00,72.4,66.2,29.73,SE,139,5.0,5.0,81,0.00,,,0.00,Wunderground v.1.15,2013-04-16 07:50:00,
2013-04-16 02:55:00,72.4,66.2,29.73,SE,133,4.0,5.0,81,0.00,,,0.00,Wunderground v.1.15,2013-04-16 07:55:00,
2013-04-16 02:59:00,72.4,66.0,29.73,SSE,163,4.0,9.0,81,0.00,,,0.00,weatherlink.com 1.10,2013-04-16 07:59:00,
2013-04-16 03:05:00,72.3,66.1,29.73,SSW,202,4.0,5.0,81,0.00,,,0.00,Wunderground v.1.15,2013-04-16 08:05:00,
2013-04-16 03:14:00,72.2,66.0,29.73,SSE,164,3.0,10.0,82,0.00,,,0.00,weatherlink.com 1.10,2013-04-16 08:14:00,
2013-04-16 03:20:00,72.1,66.3,29.73,SSE,167,5.0,5.0,82,0.00,,,0.00,Wunderground v.1.15,2013-04-16 08:20:00,
2013-04-16 03:25:00,72.1,66.3,29.73,SSE,150,5.0,5.0,82,0.00,,,0.00,Wunderground v.1.15,2013-04-16 08:25:00,
2013-04-16 03:28:00,72.0,66.0,29.73,ESE,115,4.0,8.0,82,0.00,,,0.00,weatherlink.com 1.10,2013-04-16 08:28:00,
2013-04-16 03:35:00,72.0,66.2,29.73,SSE,163,5.0,5.0,82,0.00,,,0.00,Wunderground v.1.15,2013-04-16 08:35:00,
2013-04-16 03:40:00,71.9,66.1,29.73,SSE,154,5.0,7.0,82,0.00,,,0.00,Wunderground v.1.15,2013-04-16 08:40:00,
2013-04-16 03:44:00,71.9,66.0,29.73,SSE,153,7.0,11.0,82,0.00,,,0.00,weatherlink.com 1.10,2013-04-16 08:44:00,
2013-04-16 03:50:00,71.8,66.4,29.73,SSE,154,7.0,7.0,83,0.00,,,0.00,Wunderground v.1.15,2013-04-16 08:50:00,
2013-04-16 03:55:00,71.7,66.3,29.73,SSE,158,7.0,7.0,83,0.00,,,0.00,Wunderground v.1.15,2013-04-16 08:55:00,
2013-04-16 03:59:00,71.7,66.0,29.73,SSE,164,7.0,10.0,83,0.00,,,0.00,weatherlink.com 1.10,2013-04-16 08:59:00,
2013-04-16 04:05:00,71.6,66.2,29.74,South,171,5.0,11.0,83,0.00,,,0.00,Wunderground v.1.15,2013-04-16 09:05:00,
2013-04-16 04:10:00,71.5,66.4,29.74,South,173,7.0,9.0,84,0.00,,,0.00,Wunderground v.1.15,2013-04-16 09:10:00,
2013-04-16 04:14:00,71.5,67.0,29.74,SSE,153,5.0,13.0,84,0.00,,,0.00,weatherlink.com 1.10,2013-04-16 09:14:00,
2013-04-16 04:20:00,71.5,66.4,29.74,South,189,7.0,8.0,84,0.00,,,0.00,Wunderground v.1.15,2013-04-16 09:20:00,
2013-04-16 04:29:00,71.5,67.0,29.74,South,181,4.0,12.0,84,0.00,,,0.00,weatherlink.com 1.10,2013-04-16 09:29:00,
2013-04-16 04:30:00,71.5,66.4,29.74,SE,132,6.0,6.0,84,0.00,,,0.00,Wunderground v.1.15,2013-04-16 09:30:00,
2013-04-16 04:35:00,71.4,66.3,29.75,SSE,163,7.0,8.0,84,0.00,,,0.00,Wunderground v.1.15,2013-04-16 09:35:00,
2013-04-16 04:44:00,71.4,66.0,29.74,South,175,12.0,13.0,84,0.00,,,0.00,weatherlink.com 1.10,2013-04-16 09:44:00,
2013-04-16 04:45:00,71.4,66.3,29.74,South,173,8.0,9.0,84,0.00,,,0.00,Wunderground v.1.15,2013-04-16 09:45:00,
2013-04-16 04:55:00,71.3,66.2,29.74,South,171,8.0,9.0,84,0.00,,,0.00,Wunderground v.1.15,2013-04-16 09:55:00,
2013-04-16 04:59:00,71.3,66.0,29.74,SSE,161,4.0,14.0,84,0.00,,,0.00,weatherlink.com 1.10,2013-04-16 09:59:00,
2013-04-16 05:05:00,71.3,66.2,29.75,SSE,165,8.0,8.0,84,0.00,,,0.00,Wunderground v.1.15,2013-04-16 10:05:00,
2013-04-16 05:10:00,71.3,66.6,29.75,SSE,163,7.0,7.0,85,0.00,,,0.00,Wunderground v.1.15,2013-04-16 10:10:00,
2013-04-16 05:14:00,71.3,67.0,29.75,SSE,153,12.0,12.0,85,0.00,,,0.00,weatherlink.com 1.10,2013-04-16 10:14:00,
2013-04-16 05:20:00,71.3,66.6,29.75,SSW,207,7.0,7.0,85,0.00,,,0.00,Wunderground v.1.15,2013-04-16 10:20:00,
2013-04-16 05:25:00,71.3,66.2,29.76,SSW,192,8.0,8.0,84,0.00,,,0.00,Wunderground v.1.15,2013-04-16 10:25:00,
2013-04-16 05:29:00,71.3,66.0,29.75,South,186,14.0,14.0,84,0.00,,,0.00,weatherlink.com 1.10,2013-04-16 10:29:00,
2013-04-16 05:35:00,71.3,66.2,29.75,SSW,194,9.0,10.0,84,0.00,,,0.00,Wunderground v.1.15,2013-04-16 10:35:00,
2013-04-16 05:40:00,71.3,66.2,29.76,South,179,9.0,9.0,84,0.00,,,0.00,Wunderground v.1.15,2013-04-16 10:40:00,
2013-04-16 05:44:00,71.2,66.0,29.76,SSW,193,9.0,16.0,84,0.00,,,0.00,weatherlink.com 1.10,2013-04-16 10:44:00,
2013-04-16 05:50:00,71.1,66.0,29.76,SSW,193,9.0,9.0,84,0.00,,,0.00,Wunderground v.1.15,2013-04-16 10:50:00,
2013-04-16 05:59:00,71.0,65.0,29.76,SSW,195,11.0,27.0,82,0.00,,,0.00,weatherlink.com 1.10,2013-04-16 10:59:00,
2013-04-16 06:05:00,70.9,65.1,29.76,South,176,12.0,15.0,82,0.00,,,0.00,Wunderground v.1.15,2013-04-16 11:05:00,
2013-04-16 06:14:00,70.8,65.0,29.77,SSW,205,15.0,17.0,83,0.00,,,0.00,weatherlink.com 1.10,2013-04-16 11:14:00,
2013-04-16 06:20:00,70.6,65.2,29.77,SSW,192,11.0,11.0,83,0.00,,,0.00,Wunderground v.1.15,2013-04-16 11:20:00,
2013-04-16 06:25:00,70.6,64.8,29.77,South,190,12.0,16.0,82,0.00,,,0.00,Wunderground v.1.15,2013-04-16 11:25:00,
2013-04-16 06:30:00,70.6,64.8,29.77,SSW,200,13.0,15.0,82,0.00,,,0.00,Wunderground v.1.15,2013-04-16 11:30:00,
2013-04-16 06:31:00,70.5,65.0,29.78,South,188,17.0,22.0,82,0.00,,,0.00,weatherlink.com 1.10,2013-04-16 11:31:00,
2013-04-16 06:40:00,70.4,64.6,29.78,SSW,195,12.0,12.0,82,0.00,,,0.00,Wunderground v.1.15,2013-04-16 11:40:00,
2013-04-16 06:46:00,70.3,65.0,29.78,SSW,197,10.0,19.0,82,0.00,,,0.00,weatherlink.com 1.10,2013-04-16 11:46:00,
2013-04-16 06:55:00,70.2,64.8,29.78,SSE,159,9.0,9.0,83,0.00,,,0.00,Wunderground v.1.15,2013-04-16 11:55:00,
2013-04-16 07:01:00,70.1,65.0,29.78,South,181,5.0,13.0,83,0.00,,,0.00,weatherlink.com 1.10,2013-04-16 12:01:00,
2013-04-16 07:10:00,70.0,64.6,29.78,South,172,8.0,8.0,83,0.00,,,0.00,Wunderground v.1.15,2013-04-16 12:10:00,
2013-04-16 07:15:00,69.9,64.5,29.79,SSE,155,8.0,8.0,83,0.00,,,0.00,Wunderground v.1.15,2013-04-16 12:15:00,
2013-04-16 07:16:00,69.9,65.0,29.79,SE,140,7.0,15.0,83,0.00,,,0.00,weatherlink.com 1.10,2013-04-16 12:16:00,
2013-04-16 07:25:00,69.8,64.7,29.79,South,174,8.0,10.0,84,0.00,,,0.00,Wunderground v.1.15,2013-04-16 12:25:00,
2013-04-16 07:30:00,69.7,64.6,29.79,SSW,193,9.0,9.0,84,0.00,,,0.00,Wunderground v.1.15,2013-04-16 12:30:00,
2013-04-16 07:31:00,69.7,65.0,29.79,South,172,9.0,16.0,84,0.00,,,0.00,weatherlink.com 1.10,2013-04-16 12:31:00,
2013-04-16 07:40:00,69.7,64.6,29.81,SSE,162,9.0,11.0,84,0.00,,,0.00,Wunderground v.1.15,2013-04-16 12:40:00,
2013-04-16 07:46:00,69.7,65.0,29.81,South,189,15.0,15.0,84,0.00,,,0.00,weatherlink.com 1.10,2013-04-16 12:46:00,
2013-04-16 07:55:00,69.7,64.3,29.82,South,190,10.0,10.0,83,0.00,,,0.00,Wunderground v.1.15,2013-04-16 12:55:00,
2013-04-16 08:00:00,69.7,64.3,29.82,South,188,10.0,11.0,83,0.00,,,0.00,Wunderground v.1.15,2013-04-16 13:00:00,
2013-04-16 08:01:00,69.7,64.0,29.82,South,177,10.0,17.0,83,0.00,,,0.00,weatherlink.com 1.10,2013-04-16 13:01:00,
2013-04-16 08:10:00,69.9,64.2,29.83,SSW,198,10.0,10.0,82,0.00,,,0.00,Wunderground v.1.15,2013-04-16 13:10:00,
2013-04-16 08:15:00,69.9,64.2,29.83,SW,225,10.0,10.0,82,0.00,,,0.00,Wunderground v.1.15,2013-04-16 13:15:00,
2013-04-16 08:16:00,70.0,64.0,29.83,South,175,12.0,17.0,82,0.00,,,0.00,weatherlink.com 1.10,2013-04-16 13:16:00,
2013-04-16 08:25:00,70.0,64.2,29.84,SSW,200,8.0,10.0,82,0.00,,,0.00,Wunderground v.1.15,2013-04-16 13:25:00,
2013-04-16 08:30:00,70.0,63.9,29.84,SSW,198,8.0,8.0,81,0.00,,,0.00,Wunderground v.1.15,2013-04-16 13:30:00,
2013-04-16 08:31:00,70.0,64.0,29.84,South,180,10.0,13.0,81,0.00,,,0.00,weatherlink.com 1.10,2013-04-16 13:31:00,
2013-04-16 08:40:00,70.0,63.9,29.85,SSE,165,7.0,7.0,81,0.00,,,0.00,Wunderground v.1.15,2013-04-16 13:40:00,
2013-04-16 08:46:00,70.1,64.0,29.85,South,186,9.0,10.0,81,0.00,,,0.00,weatherlink.com 1.10,2013-04-16 13:46:00,
2013-04-16 08:55:00,70.2,64.1,29.85,SSE,158,7.0,10.0,81,0.00,,,0.00,Wunderground v.1.15,2013-04-16 13:55:00,
2013-04-16 09:00:00,70.2,64.1,29.85,South,190,7.0,8.0,81,0.00,,,0.00,Wunderground v.1.15,2013-04-16 14:00:00,
2013-04-16 09:01:00,70.2,64.0,29.85,SSE,166,6.0,13.0,81,0.00,,,0.00,weatherlink.com 1.10,2013-04-16 14:01:00,
2013-04-16 09:10:00,70.3,64.2,29.86,South,179,6.0,6.0,81,0.00,,,0.00,Wunderground v.1.15,2013-04-16 14:10:00,
2013-04-16 09:15:00,70.3,64.2,29.86,South,188,6.0,8.0,81,0.00,,,0.00,Wunderground v.1.15,2013-04-16 14:15:00,
2013-04-16 09:16:00,70.2,64.0,29.86,South,171,6.0,10.0,81,0.00,,,0.00,weatherlink.com 1.10,2013-04-16 14:16:00,
2013-04-16 09:25:00,70.3,64.2,29.86,SSE,159,6.0,8.0,81,0.00,,,0.00,Wunderground v.1.15,2013-04-16 14:25:00,
2013-04-16 09:30:00,70.2,64.1,29.86,SSE,159,6.0,6.0,81,0.00,,,0.00,Wunderground v.1.15,2013-04-16 14:30:00,
2013-04-16 09:32:00,70.2,64.0,29.86,South,189,8.0,11.0,81,0.00,,,0.00,weatherlink.com 1.10,2013-04-16 14:32:00,
2013-04-16 09:40:00,70.3,64.2,29.87,SSE,163,6.0,6.0,81,0.00,,,0.00,Wunderground v.1.15,2013-04-16 14:40:00,
2013-04-16 09:45:00,70.4,64.3,29.87,South,186,7.0,9.0,81,0.00,,,0.00,Wunderground v.1.15,2013-04-16 14:45:00,
2013-04-16 09:47:00,70.5,64.0,29.87,South,189,7.0,16.0,81,0.00,,,0.00,weatherlink.com 1.10,2013-04-16 14:47:00,
2013-04-16 09:55:00,70.6,64.1,29.88,SSW,195,9.0,9.0,80,0.00,,,0.00,Wunderground v.1.15,2013-04-16 14:55:00,
2013-04-16 10:00:00,70.7,64.2,29.88,South,180,8.0,13.0,80,0.00,,,0.00,Wunderground v.1.15,2013-04-16 15:00:00,
2013-04-16 10:02:00,70.7,64.0,29.88,SSE,151,8.0,14.0,80,0.00,,,0.00,weatherlink.com 1.10,2013-04-16 15:02:00,
2013-04-16 10:10:00,70.7,64.2,29.88,SSW,197,9.0,9.0,80,0.00,,,0.00,Wunderground v.1.15,2013-04-16 15:10:00,
2013-04-16 10:15:00,70.8,64.3,29.88,SSW,193,8.0,9.0,80,0.00,,,0.00,Wunderground v.1.15,2013-04-16 15:15:00,
2013-04-16 10:17:00,70.9,64.0,29.88,SSW,198,12.0,13.0,80,0.00,,,0.00,weatherlink.com 1.10,2013-04-16 15:17:00,
2013-04-16 10:20:00,70.9,64.4,29.88,South,183,8.0,11.0,80,0.00,,,0.00,Wunderground v.1.15,2013-04-16 15:20:00,
2013-04-16 10:25:00,70.9,64.1,29.88,South,180,9.0,11.0,79,0.00,,,0.00,Wunderground v.1.15,2013-04-16 15:25:00,
2013-04-16 10:30:00,70.8,64.0,29.88,SSE,168,11.0,11.0,79,0.00,,,0.00,Wunderground v.1.15,2013-04-16 15:30:00,
2013-04-16 10:32:00,70.8,64.0,29.88,South,173,11.0,19.0,79,0.00,,,0.00,weatherlink.com 1.10,2013-04-16 15:32:00,
2013-04-16 10:35:00,70.8,64.0,29.88,South,174,11.0,14.0,79,0.00,,,0.00,Wunderground v.1.15,2013-04-16 15:35:00,
2013-04-16 10:40:00,70.8,64.0,29.88,SSE,159,11.0,11.0,79,0.00,,,0.00,Wunderground v.1.15,2013-04-16 15:40:00,
2013-04-16 10:45:00,71.2,64.4,29.88,South,178,9.0,14.0,79,0.00,,,0.00,Wunderground v.1.15,2013-04-16 15:45:00,
2013-04-16 10:47:00,71.2,64.0,29.88,South,188,8.0,15.0,78,0.00,,,0.00,weatherlink.com 1.10,2013-04-16 15:47:00,
2013-04-16 10:55:00,71.5,63.9,29.88,SSW,213,9.0,15.0,77,0.00,,,0.00,Wunderground v.1.15,2013-04-16 15:55:00,
2013-04-16 11:00:00,71.3,64.1,29.88,South,172,10.0,10.0,78,0.00,,,0.00,Wunderground v.1.15,2013-04-16 16:00:00,
2013-04-16 11:02:00,71.3,64.0,29.88,South,173,8.0,19.0,78,0.00,,,0.00,weatherlink.com 1.10,2013-04-16 16:02:00,
2013-04-16 11:10:00,71.5,64.3,29.88,South,182,9.0,9.0,78,0.00,,,0.00,Wunderground v.1.15,2013-04-16 16:10:00,
2013-04-16 11:15:00,71.7,64.1,29.89,SSE,154,8.0,13.0,77,0.00,,,0.00,Wunderground v.1.15,2013-04-16 16:15:00,
2013-04-16 11:17:00,71.7,64.0,29.89,South,181,12.0,15.0,77,0.00,,,0.00,weatherlink.com 1.10,2013-04-16 16:17:00,
2013-04-16 11:25:00,71.9,64.3,29.89,SSE,148,9.0,9.0,77,0.00,,,0.00,Wunderground v.1.15,2013-04-16 16:25:00,
2013-04-16 11:30:00,71.9,64.3,29.88,SSW,203,9.0,9.0,77,0.00,,,0.00,Wunderground v.1.15,2013-04-16 16:30:00,
2013-04-16 11:32:00,72.0,64.0,29.89,SSE,155,7.0,16.0,77,0.00,,,0.00,weatherlink.com 1.10,2013-04-16 16:32:00,
2013-04-16 11:40:00,72.1,64.1,29.88,South,186,9.0,9.0,76,0.00,,,0.00,Wunderground v.1.15,2013-04-16 16:40:00,
2013-04-16 11:45:00,72.4,64.0,29.88,SSW,192,9.0,9.0,75,0.00,,,0.00,Wunderground v.1.15,2013-04-16 16:45:00,
2013-04-16 11:47:00,72.5,64.0,29.88,SSW,196,11.0,18.0,75,0.00,,,0.00,weatherlink.com 1.10,2013-04-16 16:47:00,
2013-04-16 11:55:00,72.5,64.1,29.88,South,170,10.0,13.0,75,0.00,,,0.00,Wunderground v.1.15,2013-04-16 16:55:00,
2013-04-16 12:00:00,72.7,64.7,29.88,South,190,9.0,9.0,76,0.00,,,0.00,Wunderground v.1.15,2013-04-16 17:00:00,
2013-04-16 12:04:00,73.0,64.0,29.88,South,190,9.0,14.0,74,0.00,,,0.00,weatherlink.com 1.10,2013-04-16 17:04:00,
2013-04-16 12:10:00,73.3,64.5,29.88,SSE,164,9.0,9.0,74,0.00,,,0.00,Wunderground v.1.15,2013-04-16 17:10:00,
2013-04-16 12:15:00,73.1,64.3,29.88,South,170,10.0,10.0,74,0.00,,,0.00,Wunderground v.1.15,2013-04-16 17:15:00,
2013-04-16 12:20:00,73.2,64.4,29.87,South,190,10.0,10.0,74,0.00,,,0.00,Wunderground v.1.15,2013-04-16 17:20:00,
2013-04-16 12:25:00,73.6,64.8,29.87,South,185,10.0,13.0,74,0.00,,,0.00,Wunderground v.1.15,2013-04-16 17:25:00,
2013-04-16 12:34:00,74.3,65.0,29.87,SSW,196,7.0,16.0,72,0.00,,,0.00,weatherlink.com 1.10,2013-04-16 17:34:00,
2013-04-16 12:40:00,74.5,64.9,29.87,SSW,196,8.0,11.0,72,0.00,,,0.00,Wunderground v.1.15,2013-04-16 17:40:00,
2013-04-16 12:48:00,74.7,65.0,29.87,SSW,194,9.0,15.0,71,0.00,,,0.00,weatherlink.com 1.10,2013-04-16 17:48:00,
2013-04-16 12:55:00,74.6,65.0,29.86,SE,136,9.0,9.0,72,0.00,,,0.00,Wunderground v.1.15,2013-04-16 17:55:00,
2013-04-16 13:00:00,74.6,64.6,29.86,SE,132,8.0,8.0,71,0.00,,,0.00,Wunderground v.1.15,2013-04-16 18:00:00,
2013-04-16 13:03:00,74.8,65.0,29.86,South,170,7.0,11.0,71,0.00,,,0.00,weatherlink.com 1.10,2013-04-16 18:03:00,
2013-04-16 13:10:00,74.9,64.5,29.86,South,179,8.0,8.0,70,0.00,,,0.00,Wunderground v.1.15,2013-04-16 18:10:00,
2013-04-16 13:15:00,75.2,64.7,29.86,SSE,163,9.0,9.0,70,0.00,,,0.00,Wunderground v.1.15,2013-04-16 18:15:00,
2013-04-16 13:19:00,75.5,65.0,29.86,SSW,198,8.0,14.0,70,0.00,,,0.00,weatherlink.com 1.10,2013-04-16 18:19:00,
2013-04-16 13:25:00,75.8,64.5,29.85,SW,217,8.0,9.0,68,0.00,,,0.00,Wunderground v.1.15,2013-04-16 18:25:00,
2013-04-16 13:30:00,76.1,65.2,29.85,SSE,157,8.0,8.0,69,0.00,,,0.00,Wunderground v.1.15,2013-04-16 18:30:00,
2013-04-16 13:34:00,76.6,65.0,29.85,SSE,167,5.0,13.0,68,0.00,,,0.00,weatherlink.com 1.10,2013-04-16 18:34:00,
2013-04-16 13:40:00,77.1,64.9,29.85,SE,136,8.0,8.0,66,0.00,,,0.00,Wunderground v.1.15,2013-04-16 18:40:00,
2013-04-16 13:45:00,77.0,65.2,29.85,SSE,155,8.0,12.0,67,0.00,,,0.00,Wunderground v.1.15,2013-04-16 18:45:00,
2013-04-16 13:49:00,76.7,65.0,29.84,SE,141,6.0,15.0,67,0.00,,,0.00,weatherlink.com 1.10,2013-04-16 18:49:00,
2013-04-16 13:55:00,76.9,65.5,29.84,SSE,158,9.0,9.0,68,0.00,,,0.00,Wunderground v.1.15,2013-04-16 18:55:00,
2013-04-16 14:00:00,77.6,65.8,29.84,South,171,7.0,8.0,67,0.00,,,0.00,Wunderground v.1.15,2013-04-16 19:00:00,
2013-04-16 14:04:00,77.4,65.0,29.84,SE,129,7.0,10.0,66,0.00,,,0.00,weatherlink.com 1.10,2013-04-16 19:04:00,
2013-04-16 14:10:00,77.6,65.8,29.84,ESE,122,6.0,11.0,67,0.00,,,0.00,Wunderground v.1.15,2013-04-16 19:10:00,
2013-04-16 14:19:00,77.1,65.0,29.84,SE,124,2.0,13.0,67,0.00,,,0.00,weatherlink.com 1.10,2013-04-16 19:19:00,
2013-04-16 14:25:00,77.5,65.2,29.84,SSW,194,6.0,7.0,66,0.00,,,0.00,Wunderground v.1.15,2013-04-16 19:25:00,
2013-04-16 14:30:00,77.6,64.9,29.84,South,182,7.0,11.0,65,0.00,,,0.00,Wunderground v.1.15,2013-04-16 19:30:00,
2013-04-16 14:34:00,77.6,65.0,29.84,South,169,4.0,15.0,65,0.00,,,0.00,weatherlink.com 1.10,2013-04-16 19:34:00,
2013-04-16 14:40:00,77.7,65.0,29.84,SSW,205,8.0,8.0,65,0.00,,,0.00,Wunderground v.1.15,2013-04-16 19:40:00,
2013-04-16 14:49:00,77.7,65.0,29.84,South,181,11.0,14.0,65,0.00,,,0.00,weatherlink.com 1.10,2013-04-16 19:49:00,
2013-04-16 14:55:00,77.8,65.1,29.83,SSE,159,7.0,12.0,65,0.00,,,0.00,Wunderground v.1.15,2013-04-16 19:55:00,
2013-04-16 15:04:00,78.6,65.0,29.83,SE,142,3.0,14.0,64,0.00,,,0.00,weatherlink.com 1.10,2013-04-16 20:04:00,
2013-04-16 15:10:00,79.0,65.3,29.83,SE,144,6.0,6.0,63,0.00,,,0.00,Wunderground v.1.15,2013-04-16 20:10:00,
2013-04-16 15:15:00,78.8,65.1,29.83,SSW,196,7.0,7.0,63,0.00,,,0.00,Wunderground v.1.15,2013-04-16 20:15:00,
2013-04-16 15:19:00,79.0,65.0,29.82,South,177,4.0,13.0,63,0.00,,,0.00,weatherlink.com 1.10,2013-04-16 20:19:00,
2013-04-16 15:25:00,79.4,65.7,29.82,SSW,202,6.0,12.0,63,0.00,,,0.00,Wunderground v.1.15,2013-04-16 20:25:00,
2013-04-16 15:30:00,79.5,65.8,29.82,SSE,156,7.0,7.0,63,0.00,,,0.00,Wunderground v.1.15,2013-04-16 20:30:00,
2013-04-16 15:34:00,79.9,66.0,29.82,SSE,152,1.0,13.0,63,0.00,,,0.00,weatherlink.com 1.10,2013-04-16 20:34:00,
2013-04-16 15:40:00,80.0,65.8,29.82,SE,129,7.0,7.0,62,0.00,,,0.00,Wunderground v.1.15,2013-04-16 20:40:00,
2013-04-16 15:45:00,80.0,65.3,29.82,ESE,123,7.0,8.0,61,0.00,,,0.00,Wunderground v.1.15,2013-04-16 20:45:00,
2013-04-16 15:49:00,80.2,66.0,29.82,South,182,9.0,11.0,62,0.00,,,0.00,weatherlink.com 1.10,2013-04-16 20:49:00,
2013-04-16 15:55:00,80.2,66.0,29.81,South,177,7.0,8.0,62,0.00,,,0.00,Wunderground v.1.15,2013-04-16 20:55:00,
2013-04-16 16:00:00,80.5,66.3,29.81,SSE,150,7.0,7.0,62,0.00,,,0.00,Wunderground v.1.15,2013-04-16 21:00:00,
2013-04-16 16:04:00,80.8,66.0,29.81,SE,130,5.0,14.0,61,0.00,,,0.00,weatherlink.com 1.10,2013-04-16 21:04:00,
2013-04-16 16:10:00,80.7,66.0,29.81,SE,143,7.0,7.0,61,0.00,,,0.00,Wunderground v.1.15,2013-04-16 21:10:00,
2013-04-16 16:15:00,80.5,65.8,29.80,SSE,149,7.0,7.0,61,0.00,,,0.00,Wunderground v.1.15,2013-04-16 21:15:00,
2013-04-16 16:20:00,80.8,66.1,29.80,South,183,7.0,8.0,61,0.00,,,0.00,Wunderground v.1.15,2013-04-16 21:20:00,
2013-04-16 16:21:00,80.8,66.0,29.80,South,171,6.0,13.0,61,0.00,,,0.00,weatherlink.com 1.10,2013-04-16 21:21:00,
2013-04-16 16:30:00,81.1,66.4,29.80,South,181,7.0,7.0,61,0.00,,,0.00,Wunderground v.1.15,2013-04-16 21:30:00,
2013-04-16 16:35:00,81.2,66.5,29.80,South,186,7.0,10.0,61,0.00,,,0.00,Wunderground v.1.15,2013-04-16 21:35:00,
2013-04-16 16:45:00,81.8,66.6,29.79,ESE,109,6.0,8.0,60,0.00,,,0.00,Wunderground v.1.15,2013-04-16 21:45:00,
2013-04-16 16:51:00,82.1,66.0,29.80,SSE,165,5.0,14.0,59,0.00,,,0.00,weatherlink.com 1.10,2013-04-16 21:51:00,
2013-04-16 17:00:00,81.7,66.5,29.79,SSE,163,7.0,7.0,60,0.00,,,0.00,Wunderground v.1.15,2013-04-16 22:00:00,
2013-04-16 17:06:00,81.6,66.0,29.80,SSE,156,10.0,12.0,60,0.00,,,0.00,weatherlink.com 1.10,2013-04-16 22:06:00,
2013-04-16 17:15:00,81.8,66.6,29.80,SSE,152,7.0,10.0,60,0.00,,,0.00,Wunderground v.1.15,2013-04-16 22:15:00,
2013-04-16 17:20:00,81.7,66.9,29.80,ESE,123,7.0,12.0,61,0.00,,,0.00,Wunderground v.1.15,2013-04-16 22:20:00,
2013-04-16 17:21:00,81.7,67.0,29.80,SE,144,5.0,12.0,61,0.00,,,0.00,weatherlink.com 1.10,2013-04-16 22:21:00,
2013-04-16 17:30:00,81.1,66.4,29.80,SE,131,8.0,8.0,61,0.00,,,0.00,Wunderground v.1.15,2013-04-16 22:30:00,
2013-04-16 17:35:00,81.2,66.9,29.80,SSE,154,7.0,13.0,62,0.00,,,0.00,Wunderground v.1.15,2013-04-16 22:35:00,
2013-04-16 17:36:00,81.2,66.0,29.80,SE,146,6.0,13.0,61,0.00,,,0.00,weatherlink.com 1.10,2013-04-16 22:36:00,
2013-04-16 17:40:00,81.2,66.5,29.80,SE,143,7.0,7.0,61,0.00,,,0.00,Wunderground v.1.15,2013-04-16 22:40:00,
2013-04-16 17:45:00,81.2,66.9,29.80,South,171,7.0,7.0,62,0.00,,,0.00,Wunderground v.1.15,2013-04-16 22:45:00,
2013-04-16 17:50:00,81.6,66.8,29.80,SE,139,7.0,8.0,61,0.00,,,0.00,Wunderground v.1.15,2013-04-16 22:50:00,
2013-04-16 17:51:00,81.5,67.0,29.80,SSE,156,8.0,13.0,61,0.00,,,0.00,weatherlink.com 1.10,2013-04-16 22:51:00,
2013-04-16 18:00:00,81.3,67.0,29.80,SE,146,7.0,7.0,62,0.00,,,0.00,Wunderground v.1.15,2013-04-16 23:00:00,
2013-04-16 18:05:00,81.2,66.9,29.80,SE,142,6.0,7.0,62,0.00,,,0.00,Wunderground v.1.15,2013-04-16 23:05:00,
2013-04-16 18:06:00,81.3,67.0,29.80,SE,132,10.0,11.0,62,0.00,,,0.00,weatherlink.com 1.10,2013-04-16 23:06:00,
2013-04-16 18:15:00,81.2,66.9,29.80,ESE,111,8.0,8.0,62,0.00,,,0.00,Wunderground v.1.15,2013-04-16 23:15:00,
2013-04-16 18:20:00,81.2,66.5,29.80,SE,134,8.0,11.0,61,0.00,,,0.00,Wunderground v.1.15,2013-04-16 23:20:00,
2013-04-16 18:25:00,81.1,66.8,29.80,ESE,121,9.0,11.0,62,0.00,,,0.00,Wunderground v.1.15,2013-04-16 23:25:00,
2013-04-16 18:30:00,81.2,66.5,29.80,SE,140,9.0,10.0,61,0.00,,,0.00,Wunderground v.1.15,2013-04-16 23:30:00,
2013-04-16 18:35:00,81.1,66.4,29.80,South,173,8.0,10.0,61,0.00,,,0.00,Wunderground v.1.15,2013-04-16 23:35:00,
2013-04-16 18:36:00,81.1,66.0,29.80,SE,127,7.0,15.0,61,0.00,,,0.00,weatherlink.com 1.10,2013-04-16 23:36:00,
2013-04-16 18:45:00,80.9,66.2,29.80,SE,132,8.0,8.0,61,0.00,,,0.00,Wunderground v.1.15,2013-04-16 23:45:00,
2013-04-16 18:50:00,81.0,66.3,29.80,SSE,160,8.0,8.0,61,0.00,,,0.00,Wunderground v.1.15,2013-04-16 23:50:00,
2013-04-16 18:51:00,81.0,66.0,29.80,South,173,5.0,14.0,61,0.00,,,0.00,weatherlink.com 1.10,2013-04-16 23:51:00,
2013-04-16 19:00:00,81.2,66.5,29.80,SE,143,6.0,6.0,61,0.00,,,0.00,Wunderground v.1.15,2013-04-17 00:00:00,
2013-04-16 19:05:00,81.1,66.4,29.80,SE,130,6.0,6.0,61,0.00,,,0.00,Wunderground v.1.15,2013-04-17 00:05:00,
2013-04-16 19:15:00,80.9,66.2,29.80,ESE,113,6.0,9.0,61,0.00,,,0.00,Wunderground v.1.15,2013-04-17 00:15:00,
2013-04-16 19:21:00,80.9,66.0,29.81,SSE,162,6.0,10.0,61,0.00,,,0.00,weatherlink.com 1.10,2013-04-17 00:21:00,
2013-04-16 19:30:00,80.6,66.4,29.81,SSE,153,5.0,5.0,62,0.00,,,0.00,Wunderground v.1.15,2013-04-17 00:30:00,
2013-04-16 19:35:00,80.4,66.2,29.81,South,182,5.0,8.0,62,0.00,,,0.00,Wunderground v.1.15,2013-04-17 00:35:00,
2013-04-16 19:36:00,80.4,66.0,29.81,SSE,161,5.0,9.0,62,0.00,,,0.00,weatherlink.com 1.10,2013-04-17 00:36:00,
2013-04-16 19:45:00,80.0,66.3,29.82,SSE,165,6.0,7.0,63,0.00,,,0.00,Wunderground v.1.15,2013-04-17 00:45:00,
2013-04-16 19:50:00,79.9,66.2,29.82,SSE,167,6.0,6.0,63,0.00,,,0.00,Wunderground v.1.15,2013-04-17 00:50:00,
2013-04-16 19:51:00,79.9,66.0,29.82,SSE,162,4.0,12.0,63,0.00,,,0.00,weatherlink.com 1.10,2013-04-17 00:51:00,
2013-04-16 20:00:00,79.7,66.0,29.82,SE,143,5.0,5.0,63,0.00,,,0.00,Wunderground v.1.15,2013-04-17 01:00:00,
2013-04-16 20:05:00,79.7,66.0,29.82,South,174,5.0,5.0,63,0.00,,,0.00,Wunderground v.1.15,2013-04-17 01:05:00,
2013-04-16 20:07:00,79.7,66.0,29.82,SSE,152,3.0,11.0,63,0.00,,,0.00,weatherlink.com 1.10,2013-04-17 01:07:00,
2013-04-16 20:15:00,79.5,66.3,29.82,ESE,123,4.0,5.0,64,0.00,,,0.00,Wunderground v.1.15,2013-04-17 01:15:00,
2013-04-16 20:20:00,79.2,66.0,29.82,SE,132,4.0,4.0,64,0.00,,,0.00,Wunderground v.1.15,2013-04-17 01:20:00,
2013-04-16 20:22:00,79.2,66.0,29.82,SE,128,5.0,6.0,64,0.00,,,0.00,weatherlink.com 1.10,2013-04-17 01:22:00,
2013-04-16 20:25:00,79.1,66.3,29.82,ESE,121,5.0,5.0,65,0.00,,,0.00,Wunderground v.1.15,2013-04-17 01:25:00,
2013-04-16 20:30:00,78.8,66.0,29.82,SE,128,5.0,5.0,65,0.00,,,0.00,Wunderground v.1.15,2013-04-17 01:30:00,
2013-04-16 20:35:00,78.6,66.3,29.82,ESE,123,4.0,5.0,66,0.00,,,0.00,Wunderground v.1.15,2013-04-17 01:35:00,
2013-04-16 20:37:00,78.5,66.0,29.82,ESE,123,3.0,7.0,66,0.00,,,0.00,weatherlink.com 1.10,2013-04-17 01:37:00,
2013-04-16 20:45:00,78.2,66.3,29.82,ESE,118,3.0,4.0,67,0.00,,,0.00,Wunderground v.1.15,2013-04-17 01:45:00,
2013-04-16 20:50:00,78.1,66.2,29.82,ESE,111,2.0,2.0,67,0.00,,,0.00,Wunderground v.1.15,2013-04-17 01:50:00,
2013-04-16 20:52:00,78.0,66.0,29.82,ESE,111,1.0,5.0,67,0.00,,,0.00,weatherlink.com 1.10,2013-04-17 01:52:00,
2013-04-16 21:00:00,77.7,66.3,29.82,ESE,110,2.0,4.0,68,0.00,,,0.00,Wunderground v.1.15,2013-04-17 02:00:00,
2013-04-16 21:05:00,77.5,66.1,29.82,East,98,3.0,4.0,68,0.00,,,0.00,Wunderground v.1.15,2013-04-17 02:05:00,
2013-04-16 21:07:00,77.4,66.0,29.82,East,101,5.0,6.0,68,0.00,,,0.00,weatherlink.com 1.10,2013-04-17 02:07:00,
2013-04-16 21:15:00,77.4,66.4,29.82,East,85,3.0,4.0,69,0.00,,,0.00,Wunderground v.1.15,2013-04-17 02:15:00,
2013-04-16 21:20:00,77.3,66.3,29.82,ESE,111,3.0,3.0,69,0.00,,,0.00,Wunderground v.1.15,2013-04-17 02:20:00,
2013-04-16 21:22:00,77.2,66.0,29.82,ESE,113,3.0,7.0,69,0.00,,,0.00,weatherlink.com 1.10,2013-04-17 02:22:00,
2013-04-16 21:30:00,77.0,66.5,29.82,ESE,107,4.0,4.0,70,0.00,,,0.00,Wunderground v.1.15,2013-04-17 02:30:00,
2013-04-16 21:35:00,76.9,66.4,29.82,ESE,107,3.0,4.0,70,0.00,,,0.00,Wunderground v.1.15,2013-04-17 02:35:00,
2013-04-16 21:37:00,76.9,66.0,29.82,ESE,105,4.0,7.0,70,0.00,,,0.00,weatherlink.com 1.10,2013-04-17 02:37:00,
2013-04-16 21:45:00,76.9,66.4,29.82,East,88,4.0,4.0,70,0.00,,,0.00,Wunderground v.1.15,2013-04-17 02:45:00,
2013-04-16 21:50:00,76.8,66.3,29.82,East,88,4.0,4.0,70,0.00,,,0.00,Wunderground v.1.15,2013-04-17 02:50:00,
2013-04-16 21:52:00,76.7,66.0,29.82,East,88,2.0,7.0,70,0.00,,,0.00,weatherlink.com 1.10,2013-04-17 02:52:00,
2013-04-16 22:00:00,76.7,66.2,29.83,ESE,114,3.0,3.0,70,0.00,,,0.00,Wunderground v.1.15,2013-04-17 03:00:00,
2013-04-16 22:05:00,76.6,66.5,29.82,East,98,3.0,3.0,71,0.00,,,0.00,Wunderground v.1.15,2013-04-17 03:05:00,
2013-04-16 22:09:00,76.5,66.0,29.82,ESE,121,1.0,8.0,71,0.00,,,0.00,weatherlink.com 1.10,2013-04-17 03:09:00,
2013-04-16 22:15:00,76.4,66.3,29.82,SE,135,4.0,4.0,71,0.00,,,0.00,Wunderground v.1.15,2013-04-17 03:15:00,
2013-04-16 22:20:00,76.4,66.3,29.83,ESE,117,4.0,4.0,71,0.00,,,0.00,Wunderground v.1.15,2013-04-17 03:20:00,
2013-04-16 22:24:00,76.4,66.0,29.83,SE,140,6.0,8.0,71,0.00,,,0.00,weatherlink.com 1.10,2013-04-17 03:24:00,
2013-04-16 22:30:00,76.6,66.1,29.83,ESE,123,5.0,7.0,70,0.00,,,0.00,Wunderground v.1.15,2013-04-17 03:30:00,
2013-04-16 22:35:00,76.6,66.1,29.83,SE,137,6.0,7.0,70,0.00,,,0.00,Wunderground v.1.15,2013-04-17 03:35:00,
2013-04-16 22:39:00,76.6,66.0,29.83,SSE,151,4.0,11.0,70,0.00,,,0.00,weatherlink.com 1.10,2013-04-17 03:39:00,
2013-04-16 22:45:00,76.6,66.1,29.83,ESE,120,4.0,5.0,70,0.00,,,0.00,Wunderground v.1.15,2013-04-17 03:45:00,
2013-04-16 22:50:00,76.6,66.5,29.83,SSE,154,5.0,7.0,71,0.00,,,0.00,Wunderground v.1.15,2013-04-17 03:50:00,
2013-04-16 22:53:00,76.6,66.0,29.83,ESE,123,5.0,11.0,70,0.00,,,0.00,weatherlink.com 1.10,2013-04-17 03:53:00,
2013-04-16 23:00:00,76.6,66.5,29.83,SSE,163,5.0,5.0,71,0.00,,,0.00,Wunderground v.1.15,2013-04-17 04:00:00,
2013-04-16 23:05:00,76.6,66.5,29.83,SSE,159,5.0,6.0,71,0.00,,,0.00,Wunderground v.1.15,2013-04-17 04:05:00,
2013-04-16 23:09:00,76.6,67.0,29.83,SE,124,7.0,13.0,71,0.00,,,0.00,weatherlink.com 1.10,2013-04-17 04:09:00,
2013-04-16 23:10:00,76.6,66.5,29.83,South,177,6.0,8.0,71,0.00,,,0.00,Wunderground v.1.15,2013-04-17 04:10:00,
2013-04-16 23:20:00,76.4,66.7,29.83,SSE,167,5.0,6.0,72,0.00,,,0.00,Wunderground v.1.15,2013-04-17 04:20:00,
2013-04-16 23:24:00,76.2,67.0,29.83,SE,146,4.0,10.0,72,0.00,,,0.00,weatherlink.com 1.10,2013-04-17 04:24:00,
2013-04-16 23:25:00,76.2,66.5,29.83,SSE,154,5.0,6.0,72,0.00,,,0.00,Wunderground v.1.15,2013-04-17 04:25:00,
2013-04-16 23:30:00,76.1,66.8,29.83,SSE,168,6.0,10.0,73,0.00,,,0.00,Wunderground v.1.15,2013-04-17 04:30:00,
2013-04-16 23:35:00,76.1,66.8,29.83,SSE,155,7.0,10.0,73,0.00,,,0.00,Wunderground v.1.15,2013-04-17 04:35:00,
2013-04-16 23:39:00,76.2,67.0,29.83,SSE,161,10.0,18.0,73,0.00,,,0.00,weatherlink.com 1.10,2013-04-17 04:39:00,
2013-04-16 23:45:00,76.2,66.9,29.83,South,179,8.0,8.0,73,0.00,,,0.00,Wunderground v.1.15,2013-04-17 04:45:00,
2013-04-16 23:53:00,76.3,67.0,29.84,SSE,160,8.0,14.0,73,0.00,,,0.00,weatherlink.com 1.10,2013-04-17 04:53:00,
2013-04-16 23:55:00,76.3,67.0,29.83,SSE,159,8.0,10.0,73,0.00,,,0.00,Wunderground v.1.15,2013-04-17 04:55:00,